Powrót do katalogu

COSMOS 447

AktywnyMilitariaLEO
NORAD 5550·PAYLOAD·🇷🇺 Russia

Wystrzelony Oct 13, 1971 z Plesetsk Cosmodrome

Loading…

Następne Przeloty (najbliższe 24 godziny)

TLE

ŚwieżeSource: Space-Track

Epoka: Sep 14, 2026, 13:54 UTC

1 05550U 71086D   26257.57921638 -.00000004  00000-0  75667-4 0  9990
2 05550  74.0291 190.0853 0066135 189.4464 346.1930 12.50624867507372

Śledź COSMOS 447 w czasie rzeczywistym z AllMySat

Download on the App Store